DW0367 Weather Reports


time (UTC)temp
C
wind
direction
speed
KPH
gust
KPH
rain 1hr
cm
rain 24hr
cm
rain mn
cm
humidity
%
barometer
mb
20260504180204 15 227 0.0 3.2 0.15 0.18 0.18 89 1005.1
20260504175704 15 275 1.6 3.2 0.00 0.03 0.03 88 1005.3
20260504175204 15 275 0.0 1.6 0.00 0.03 0.03 88 1005.5
20260504174704 15 275 0.0 0.0 0.00 0.03 0.03 87 1005.3
20260504174203 15 275 0.0 0.0 0.03 0.03 0.03 88 1005.3
20260504173204 15 275 0.0 1.6 0.03 0.03 0.03 86 1005.4
20260504172704 16 275 0.0 1.6 0.03 0.03 0.03 86 1005.4
20260504172204 16 275 0.0 1.6 0.03 0.03 0.03 86 1005.5
20260504171704 16 275 0.0 1.6 0.03 0.03 0.03 85 1005.7
20260504171204 16 275 0.0 1.6 0.03 0.03 0.03 84 1005.7
20260504170703 16 275 0.0 1.6 0.03 0.03 0.03 83 1005.7
20260504170205 16 275 0.0 1.6 0.03 0.03 0.03 82 1005.6
20260504160204 18 279 0.0 1.6 0.00 0.00 0.00 69 1006.7
20260504150704 19 279 1.6 1.6 0.00 0.00 0.00 66 1007.5
20260504150204 19 279 0.0 1.6 0.00 0.00 0.00 66 1007.6
20260504141204 18 125 1.6 4.8 0.00 0.00 0.00 67 1007.1
20260504140704 18 119 1.6 4.8 0.00 0.00 0.00 69 1007.2
20260504140205 18 119 1.6 3.2 0.00 0.00 0.00 69 1007.2
20260504130704 15 277 0.0 3.2 0.00 0.00 0.00 76 1007.9
20260504130204 15 277 0.0 1.6 0.00 0.00 0.00 77 1007.9
20260504120204 13 276 0.0 0.0 0.00 0.00 0.00 82 1008.5
20260504110704 13 277 0.0 1.6 0.00 0.00 0.00 81 1008.4
20260504110203 13 277 0.0 0.0 0.00 0.00 0.00 81 1008.4
20260504100204 14 277 0.0 0.0 0.00 0.00 0.00 79 1008.3
20260504081703 15 277 0.0 0.0 0.00 0.00 0.00 75 1008.3
20260504080204 15 277 0.0 0.0 0.00 0.00 0.00 73 1008.1
20260504070203 17 277 0.0 1.6 0.00 0.00 0.00 68 1008.5
20260504060204 18 277 1.6 3.2 0.00 0.00 0.00 60 1008.5
20260504050704 19 277 1.6 4.8 0.00 0.00 0.00 59 1008.2
20260504050204 19 277 3.2 4.8 0.00 0.00 0.00 59 1008.2
20260504045704 19 278 3.2 4.8 0.00 0.00 0.00 59 1008.2
20260504045204 19 279 3.2 4.8 0.00 0.00 0.00 59 1008.3
20260504044204 19 270 1.6 4.8 0.00 0.00 0.00 59 1008.5
20260504043204 19 270 1.6 4.8 0.00 0.00 0.00 58 1008.9
20260504042203 19 270 1.6 4.8 0.00 0.00 0.00 58 1009.1
20260504041704 19 270 1.6 4.8 0.00 0.00 0.00 58 1009.2
20260504041204 20 253 1.6 4.8 0.00 0.00 0.00 58 1009.2
20260504040704 20 253 1.6 4.8 0.00 0.00 0.00 58 1009.2
20260504040204 20 209 1.6 3.2 0.00 0.00 0.00 58 1009.2
20260504035704 20 209 1.6 3.2 0.00 0.00 0.00 57 1009.2
20260504035204 20 209 1.6 3.2 0.00 0.00 0.00 57 1009.2
20260504034204 20 187 0.0 4.8 0.00 0.00 0.00 57 1009.5
20260504033704 20 186 1.6 4.8 0.00 0.00 0.00 57 1009.6
20260504033204 20 272 1.6 3.2 0.00 0.00 0.00 57 1009.9
20260504032704 20 272 1.6 3.2 0.00 0.00 0.00 57 1010.0
20260504032204 20 272 1.6 3.2 0.00 0.00 0.00 57 1009.9
20260504031703 20 272 0.0 1.6 0.00 0.00 0.00 57 1010.0
20260504031204 20 272 0.0 1.6 0.00 0.00 0.00 60 1010.0
20260504030704 20 272 0.0 1.6 0.00 0.00 0.00 57 1009.9
20260504030204 20 272 0.0 0.0 0.00 0.00 0.00 58 1009.9
20260504025204 20 272 0.0 1.6 0.00 0.00 0.00 57 1009.7
20260504024204 20 272 0.0 0.0 0.00 0.00 0.00 56 1009.7
20260504023703 20 272 0.0 0.0 0.00 0.00 0.00 58 1009.7
20260504023204 20 272 0.0 3.2 0.00 0.00 0.00 57 1009.7
20260504022704 20 272 0.0 3.2 0.00 0.00 0.00 57 1009.6
20260504022203 20 272 0.0 1.6 0.00 0.00 0.00 57 1009.6
20260504021703 20 272 0.0 1.6 0.00 0.00 0.00 56 1009.5
20260504020704 20 272 0.0 1.6 0.00 0.00 0.00 55 1009.5
20260504020203 20 272 0.0 1.6 0.00 0.00 0.00 55 1009.4
20260504015704 20 272 0.0 1.6 0.00 0.00 0.00 56 1009.4
20260504015204 20 271 0.0 1.6 0.00 0.00 0.00 55 1009.4
20260504014705 20 271 1.6 1.6 0.00 0.00 0.00 54 1009.4
20260504014204 21 271 0.0 1.6 0.00 0.00 0.00 55 1009.3
20260504013704 21 271 0.0 0.0 0.00 0.00 0.00 55 1009.2
20260504012704 21 271 0.0 1.6 0.00 0.00 0.00 54 1009.2
20260504012204 21 271 0.0 1.6 0.00 0.00 0.00 54 1009.2
20260504011704 21 271 0.0 1.6 0.00 0.00 0.00 52 1009.2
20260504010703 22 271 0.0 1.6 0.00 0.00 0.00 50 1009.1
20260504010204 22 271 0.0 1.6 0.00 0.00 0.00 51 1009.1
20260504005703 22 271 0.0 1.6 0.00 0.00 0.00 50 1009.1
20260504005203 22 271 0.0 1.6 0.00 0.00 0.00 50 1009.1
20260504004703 22 271 0.0 1.6 0.00 0.00 0.00 51 1009.1
20260504004204 22 271 0.0 1.6 0.00 0.00 0.00 50 1009.1
20260504003704 22 271 0.0 1.6 0.00 0.00 0.00 49 1009.1
20260504003204 22 270 0.0 1.6 0.00 0.00 0.00 49 1009.1
20260504002704 23 270 0.0 1.6 0.00 0.00 0.00 47 1009.2
20260504002204 23 270 0.0 1.6 0.00 0.00 0.00 48 1009.2
20260504001703 23 270 0.0 1.6 0.00 0.00 0.00 47 1009.1
20260504001204 23 270 0.0 1.6 0.00 0.00 0.00 46 1009.1
20260504000704 23 270 0.0 1.6 0.00 0.00 0.00 45 1009.1
20260503235204 23 270 0.0 3.2 0.00 0.00 0.00 44 1009.2
20260503234704 23 270 1.6 1.6 0.00 0.00 0.00 44 1009.2
20260503234204 24 270 0.0 4.8 0.00 0.00 0.00 44 1009.3
20260503233704 24 270 1.6 4.8 0.00 0.00 0.00 43 1009.3
20260503233204 24 269 1.6 4.8 0.00 0.00 0.00 43 1009.4
20260503232703 24 269 1.6 4.8 0.00 0.00 0.00 42 1009.4
20260503232204 24 269 1.6 4.8 0.00 0.00 0.00 42 1009.4
20260503231703 24 269 1.6 4.8 0.00 0.00 0.00 41 1009.4
20260503230203 24 277 1.6 4.8 0.00 0.00 0.00 41 1009.5
20260503225204 24 276 1.6 4.8 0.00 0.00 0.00 41 1009.7
20260503224704 24 276 1.6 4.8 0.00 0.00 0.00 40 1009.7
20260503223704 24 284 1.6 9.7 0.00 0.00 0.00 40 1009.8
20260503223204 24 284 1.6 9.7 0.00 0.00 0.00 39 1009.8
20260503222204 24 283 3.2 4.8 0.00 0.00 0.00 39 1009.9
20260503221204 24 270 1.6 4.8 0.00 0.00 0.00 40 1009.9
20260503220204 24 290 3.2 8.0 0.00 0.00 0.00 39 1010.1
20260503215704 24 281 3.2 4.8 0.00 0.00 0.00 39 1010.2
20260503214703 24 273 3.2 11.3 0.00 0.00 0.00 38 1010.2
20260503214203 24 269 3.2 11.3 0.00 0.00 0.00 38 1010.2
20260503213204 24 282 3.2 11.3 0.00 0.00 0.00 37 1010.2
20260503212704 24 279 3.2 11.3 0.00 0.00 0.00 37 1010.2
20260503212203 24 287 3.2 9.7 0.00 0.00 0.00 37 1010.3
20260503211703 24 276 3.2 9.7 0.00 0.00 0.00 37 1010.3
20260503210703 23 271 3.2 9.7 0.00 0.00 0.00 39 1010.4
20260503210204 23 267 3.2 9.7 0.00 0.00 0.00 37 1010.6
20260503205704 23 279 3.2 9.7 0.00 0.00 0.00 38 1010.6
20260503205203 23 277 3.2 8.0 0.00 0.00 0.00 39 1010.6
20260503204704 23 288 3.2 8.0 0.00 0.00 0.00 38 1010.7
20260503204204 23 189 1.6 9.7 0.00 0.00 0.00 40 1010.8
20260503203704 23 276 3.2 9.7 0.00 0.00 0.00 39 1011.0
20260503203203 23 14 3.2 14.5 0.00 0.00 0.00 39 1011.1
20260503202704 23 273 4.8 14.5 0.00 0.00 0.00 39 1011.1
20260503202204 23 278 1.6 9.7 0.00 0.00 0.00 40 1011.2
20260503201703 23 280 4.8 14.5 0.00 0.00 0.00 39 1011.3
20260503201204 22 273 4.8 14.5 0.00 0.00 0.00 38 1011.4
20260503200704 22 280 4.8 14.5 0.00 0.00 0.00 39 1011.5
20260503200204 22 278 6.4 14.5 0.00 0.00 0.00 38 1011.8
20260503195703 22 282 4.8 12.9 0.00 0.00 0.00 38 1012.0
20260503195204 22 279 3.2 11.3 0.00 0.00 0.00 40 1012.1
20260503194704 22 261 3.2 11.3 0.00 0.00 0.00 41 1012.1
20260503194204 22 281 3.2 11.3 0.00 0.00 0.00 40 1012.2
20260503193704 22 283 4.8 11.3 0.00 0.00 0.00 40 1012.4
20260503193205 22 77 1.6 11.3 0.00 0.00 0.00 42 1012.5
20260503192204 22 282 3.2 11.3 0.00 0.00 0.00 42 1012.7
20260503191704 22 275 1.6 11.3 0.00 0.00 0.00 43 1012.9
20260503190704 22 268 3.2 4.8 0.00 0.00 0.00 41 1013.2
20260503190204 21 283 1.6 4.8 0.00 0.00 0.00 44 1013.3
20260503185704 21 286 3.2 9.7 0.00 0.00 0.00 43 1013.4
20260503185204 21 268 3.2 12.9 0.00 0.00 0.00 43 1013.5
20260503184703 21 280 3.2 12.9 0.00 0.00 0.00 42 1013.6
20260503184204 21 335 1.6 12.9 0.00 0.00 0.00 42 1013.7
20260503183704 21 288 4.8 12.9 0.00 0.00 0.00 41 1013.8
20260503182704 20 248 3.2 11.3 0.00 0.00 0.00 43 1014.2
20260503182205 20 278 3.2 11.3 0.00 0.00 0.00 44 1014.2
20260503181704 20 265 3.2 9.7 0.00 0.00 0.00 43 1014.4
20260503181203 20 107 1.6 9.7 0.00 0.00 0.00 45 1014.4
20260503180704 20 244 3.2 9.7 0.00 0.00 0.00 43 1014.8